Flag for U.S.A. Weather past 2 weeks in Daytona Beach, Florida, U.S.A.

Now
86 °F

Scattered clouds.


Feels Like: 92 °F
Forecast: 72 / 87 °F
Wind: 3 mph from North

Location: Daytona Beach Regional Airport

Current Time: Sep 18, 2014 at 12:39:30 PM

Latest Report: Sep 18, 2014 at 11:53 AM


Visibility: 10 mi

Pressure: 29.95 "Hg

Humidity: 63%

Dew point: 72 °F

Location of Daytona BeachLocation

Historic Weather in Daytona Beach — Graph

°F

Daytona Beach temperature yesterday

Maximum temperature yesterday: 85 °F (at 2:53 PM)
Minimum temperature yesterday: 73 °F (at 2:53 AM)
Average temperature yesterday: 77 °F

Past Weeks' High & Low Weather Summary

 TemperatureHumidityPressure
High89 °F (Sep 3, 12:53 PM)100% (Sep 5, 6:53 PM)30.17 "Hg (Sep 5, 6:53 PM)
Low71 °F (Sep 18, 2:53 AM)52% (Sep 4, 1:53 PM)29.87 "Hg (Sep 17, 4:53 PM)
Average79 °F83%30.04 "Hg
* Reported Sep 3 10:53 AM — Sep 18 10:53 AM, Daytona Beach, Weather by CustomWeather, © 2014

Note: Actual official high and low records may vary slightly from our data, if they occured in-between our weather recording intervals... More about our weather records

Advertising

Daytona Beach weather history for previous 24 hours

 ConditionsComfort  
Time TempWeatherWind HumidityBarometerVisibility
10:53 AM
Sep 18
84 °FPassing clouds.5 mph70%29.94 "Hg10 mi
9:53 AM82 °FPassing clouds.No wind74%29.94 "Hg10 mi
8:53 AM78 °FPassing clouds.No wind84%29.93 "Hg10 mi
7:53 AM72 °FPassing clouds.No wind97%29.91 "Hg9 mi
6:53 AM71 °FPassing clouds.No wind96%29.90 "Hg10 mi
5:53 AM71 °FClear.No wind93%29.90 "Hg10 mi
4:53 AM71 °FPassing clouds.No wind93%29.88 "Hg10 mi
3:53 AM72 °FPassing clouds.3 mph91%29.88 "Hg10 mi
2:53 AM71 °FClear.3 mph96%29.89 "Hg10 mi
1:53 AM72 °FClear.No wind93%29.90 "Hg10 mi
12:53 AM73 °FClear.No wind94%29.91 "Hg10 mi
11:53 PM
Sep 17
73 °FClear.No wind97%29.92 "Hg10 mi
10:53 PM73 °FClear.3 mph97%29.93 "Hg10 mi
9:53 PM75 °FClear.No wind94%29.91 "Hg10 mi
8:53 PM75 °FPassing clouds.3 mph94%29.90 "Hg10 mi
7:53 PM76 °FScattered clouds.No wind91%29.88 "Hg10 mi
6:53 PM80 °FPartly sunny.5 mph81%29.87 "Hg10 mi
5:53 PM82 °FBroken clouds.6 mph70%29.87 "Hg10 mi
4:53 PM82 °FPartly sunny.8 mph74%29.87 "Hg10 mi
3:53 PM84 °FBroken clouds.6 mph67%29.87 "Hg10 mi
2:53 PM85 °FBroken clouds.7 mph65%29.88 "Hg10 mi
1:53 PM84 °FBroken clouds.8 mph67%29.89 "Hg10 mi
12:53 PM83 °FBroken clouds.12 mph70%29.93 "Hg10 mi
Weather by CustomWeather, © 2014

See weather overviewHow to use our weather pages